This demonstration page uses our WeatherBlox Daily Observations layout. Learn more.

Left ArrowRight Arrow

Hourly Observations for April 26, 2015

Temp ( °F °C ) Dew Point ( °F °C ) Humidity (%) Winds ( mph kmh ) Pressure ( in mb ) Visibility ( mi km ) Precip ( " mm )
12:15 am 00:15 Cloudy 49 9.3 46 7.5 89 89 E 13 20 29.88 1012 7 11 N/A
12:35 am 00:35 Cloudy 48 9.1 45 7.1 87 87 E 13 20 29.88 1012 10 16 N/A
12:55 am 00:55 Cloudy 48 8.9 45 7 88 88 E 14 22 29.88 1012 7 11 N/A
1:15 am 01:15 Cloudy 47 8.6 45 7 90 90 E 12 19 29.88 1012 7 11 N/A
1:35 am 01:35 Cloudy 47 8.5 44 6.6 88 88 E 12 19 29.88 1012 10 16 N/A
1:55 am 01:55 Cloudy 47 8.5 44 6.5 87 87 E 15 24 29.88 1012 10 16 N/A
2:15 am 02:15 Cloudy 47 8.4 44 6.6 89 89 E 12 19 29.91 1013 10 16 N/A
2:35 am 02:35 Cloudy 47 8.3 44 6.6 89 89 E 13 20 29.91 1013 10 16 N/A
2:55 am 02:55 Cloudy 47 8.2 44 6.6 90 90 E 13 20 29.91 1013 7 11 N/A
3:15 am 03:15 Cloudy 46 8 44 6.6 91 91 E 13 20 29.91 1013 7 11 N/A
3:35 am 03:35 Cloudy with Mist and Fog 46 7.7 44 6.4 92 92 E 10 17 29.91 1013 5 8 N/A
3:55 am 03:55 Cloudy with Mist and Fog 46 7.6 44 6.5 93 93 E 15 24 29.91 1013 4 6 N/A
4:15 am 04:15 Cloudy with Mist and Fog 46 7.6 44 6.5 93 93 E 12 19 29.91 1013 5 8 N/A
4:35 am 04:35 Cloudy with Mist and Fog 46 7.6 44 6.5 93 93 E 10 17 29.94 1014 4 6 N/A
4:55 am 04:55 Cloudy with Mist and Fog 46 7.6 44 6.5 93 93 E 8 13 29.94 1014 5 8 N/A
5:15 am 05:15 Cloudy with Drizzle 46 7.5 44 6.5 93 93 E 10 17 29.94 1014 3 5 N/A
5:35 am 05:35 Cloudy with Mist and Fog 46 7.5 44 6.5 93 93 E 9 15 29.94 1014 4 6 N/A
5:55 am 05:55 Cloudy with Drizzle 46 7.5 44 6.5 93 93 E 7 11 29.94 1014 3 4 N/A
6:15 am 06:15 Cloudy with Mist and Fog 46 7.5 44 6.5 93 93 E 12 19 29.94 1014 3 5 N/A
6:35 am 06:35 Cloudy with Mist and Fog 46 7.5 44 6.5 93 93 E 9 15 29.97 1015 4 6 N/A
6:55 am 06:55 Cloudy with Mist and Fog 45 7.1 43 6.1 93 93 ENE 10 17 29.97 1015 3 5 N/A
7:15 am 07:15 Cloudy with Mist and Fog 45 7.1 43 6.1 93 93 E 9 15 29.97 1015 4 6 N/A
7:35 am 07:35 Cloudy with Mist and Fog 45 7.2 43 6.2 93 93 E 10 17 29.97 1015 3 5 N/A
7:55 am 07:55 Cloudy with Mist and Fog 45 7.2 43 6.1 93 93 E 14 22 30.00 1016 4 6 N/A
8:15 am 08:15 Cloudy with Mist and Fog 45 7.3 43 6 92 92 E 12 19 30.00 1016 5 8 N/A
8:35 am 08:35 Cloudy with Mist and Fog 45 7.2 43 6 92 92 E 13 20 30.00 1016 3 4 N/A
8:55 am 08:55 Cloudy with Mist and Fog 45 7.2 43 6.1 93 93 E 16 26 30.00 1016 2 3 N/A
9:15 am 09:15 Cloudy with Mist and Fog 45 7 42 5.8 92 92 E 12 19 30.00 1016 3 5 N/A
9:35 am 09:35 Cloudy with Mist and Fog 45 7 42 5.7 92 92 E 14 22 30.00 1016 3 5 N/A
9:55 am 09:55 Cloudy with Mist and Fog 44 6.9 42 5.7 92 92 E 14 22 30.00 1016 4 6 N/A
10:15 am 10:15 Cloudy with Mist and Fog 44 6.9 42 5.7 92 92 E 13 20 30.00 1016 3 5 N/A
10:35 am 10:35 Cloudy with Mist and Fog 45 7 42 5.7 92 92 E 15 24 30.00 1016 3 5 N/A
10:55 am 10:55 Cloudy 45 7 42 5.5 90 90 E 14 22 30.03 1017 10 16 N/A
11:15 am 11:15 Cloudy 46 7.5 42 5.3 86 86 E 12 19 30.03 1017 10 16 N/A
11:35 am 11:35 Cloudy 47 8.1 42 5.5 84 84 E 12 19 30.03 1017 10 16 N/A
11:55 am 11:55 Cloudy 48 8.7 42 5.5 81 81 E 16 26 30.03 1017 10 16 N/A
12:15 pm 12:15 Cloudy 48 9.1 42 5.6 79 79 E 15 24 30.03 1017 10 16 N/A
12:35 pm 12:35 Cloudy 50 9.8 43 5.9 77 77 E 13 20 30.00 1016 10 16 N/A
12:55 pm 12:55 Cloudy 51 10.4 43 6.2 75 75 E 14 22 30.00 1016 10 16 N/A
1:15 pm 13:15 Cloudy 51 10.5 43 6.1 74 74 E 13 20 30.00 1016 10 16 N/A
1:35 pm 13:35 Cloudy 51 10.7 43 6 73 73 E 16 26 29.97 1015 10 16 N/A
1:55 pm 13:55 Cloudy 51 10.8 43 6 72 72 E 12 19 29.97 1015 10 16 N/A
2:15 pm 14:15 Cloudy 52 11 43 5.9 71 71 E 17 28 29.97 1015 10 16 N/A
2:35 pm 14:35 Cloudy 52 11.3 43 6.1 71 71 ESE 16 26 29.97 1015 10 16 N/A
2:55 pm 14:55 Cloudy 52 11.2 43 6.3 72 72 E 16 26 29.97 1015 10 16 N/A
3:15 pm 15:15 Cloudy 53 11.4 43 6.2 71 71 ESE 17 28 29.97 1015 10 16 N/A
3:35 pm 15:35 Cloudy 52 11.3 43 6.3 72 72 E 14 22 30.00 1016 10 16 N/A
3:55 pm 15:55 Cloudy 53 11.4 43 6.3 71 71 E 10 17 30.00 1016 10 16 N/A
4:15 pm 16:15 Cloudy 53 11.5 43 6.3 71 71 E 15 24 29.97 1015 10 16 N/A
4:35 pm 16:35 Cloudy 53 11.5 43 6.2 70 70 E 12 19 30.00 1016 10 16 N/A
4:55 pm 16:55 Cloudy 53 11.6 43 6.3 70 70 E 13 20 30.00 1016 10 16 N/A
5:15 pm 17:15 Cloudy 53 11.7 44 6.4 70 70 E 10 17 30.00 1016 10 16 N/A
5:35 pm 17:35 Cloudy 53 11.8 44 6.5 70 70 E 13 20 30.00 1016 10 16 N/A
5:55 pm 17:55 Cloudy 54 12 44 6.5 69 69 E 10 17 30.00 1016 10 16 N/A
6:15 pm 18:15 Cloudy 54 12 44 6.4 69 69 E 10 17 30.00 1016 10 16 N/A
6:35 pm 18:35 Cloudy 54 12 44 6.5 69 69 E 10 17 30.00 1016 10 16 N/A
6:55 pm 18:55 Cloudy 54 12 44 6.6 70 70 E 12 19 30.00 1016 10 16 N/A
7:15 pm 19:15 Cloudy 53 11.8 44 6.7 71 71 E 10 17 30.00 1016 10 16 N/A
7:35 pm 19:35 Cloudy 53 11.8 44 6.6 71 71 E 8 13 30.00 1016 10 16 N/A
7:55 pm 19:55 Cloudy 53 11.7 44 6.5 71 71 E 9 15 30.00 1016 10 16 N/A
8:15 pm 20:15 Cloudy 53 11.7 44 6.5 71 71 E 9 15 30.00 1016 10 16 N/A
8:35 pm 20:35 Cloudy 53 11.5 44 6.6 72 72 E 7 11 30.03 1017 10 16 N/A
8:55 pm 20:55 Cloudy 52 11.2 44 6.5 73 73 E 6 9 30.03 1017 10 16 N/A
9:15 pm 21:15 Cloudy 52 11 43 6.3 73 73 E 7 11 30.03 1017 10 16 N/A
9:35 pm 21:35 Cloudy 50 10 43 6.1 77 77 ENE 6 9 30.06 1018 10 16 N/A
9:55 pm 21:55 Cloudy 48 9 43 6 82 82 E 7 11 30.06 1018 10 16 N/A
10:15 pm 22:15 Cloudy 49 9.5 43 6.1 80 80 E 7 11 30.09 1019 10 16 N/A
10:35 pm 22:35 Cloudy 49 9.6 43 6.3 80 80 ENE 6 9 30.09 1019 10 16 N/A
10:55 pm 22:55 Partly Cloudy 48 8.7 42 5.5 81 81 NE 8 13 30.09 1019 10 16 N/A
11:15 pm 23:15 Clear 46 7.5 40 4.7 83 83 NE 7 11 30.09 1019 10 16 N/A
11:35 pm 23:35 Clear 44 6.8 40 4.2 84 84 NE 6 9 30.12 1020 10 16 N/A
11:55 pm 23:55 Clear 42 5.7 38 3.5 86 86 NE 7 11 30.12 1020 10 16 N/A

Powered by AerisWeather